QPF
0.00 0.00 0.00 0.00 0.00 0.00 0.00 0.00 0.00 0.00 0.00 0.00 0.00 0.00 0.00 0.00 0.00 0.00 0.00 0.00 0.00 0.00 0.00 0.01 0.00 0.00 0.00 0.00 0.00 0.00 0.00 0.00 0.01 0.01 0.01 0.01 0.01 0.01 0.01 0.01 0.01 0.01 0.01 0.01
0.00 0.00 0.00 0.00 0.00 0.00 0.00 0.00 0.00 0.00 0.00 0.00 0.00 0.00 0.00 0.00 0.00 0.00 0.00 0.00 0.01 0.01 0.01 0.01 0.00 0.00 0.00 0.00 0.00 0.00 0.00 0.01 0.01 0.01 0.01 0.00 0.00 0.00 0.00 0.00 0.01 0.01 0.01 0.01
0.00 0.00 0.00 0.00 0.00 0.00 0.00 0.00 0.00 0.00 0.00 0.00 0.00 0.00 0.00 0.00 0.00 0.00 0.00 0.00 0.01 0.01 0.01 0.00 0.00 0.00 0.00 0.00 0.00 0.00 0.00 0.01 0.01 0.01 0.01 0.00 0.00 0.00 0.01 0.01 0.00 0.00 0.01 0.01
0.00 0.00 0.00 0.00 0.00 0.00 0.00 0.00 0.00 0.00 0.00 0.00 0.00 0.00 0.00 0.00 0.00 0.00 0.00 0.00 0.00 0.00 0.00 0.00 0.00 0.00 0.00 0.00 0.00 0.00 0.00 0.01 0.01 0.01 0.01 0.01 0.00 0.00 0.00 0.00 0.01 0.01 0.02 0.01
0.01 0.00 0.00 0.00 0.00 0.00 0.00 0.00 0.00 0.00 0.00 0.00 0.00 0.00 0.00 0.00 0.00 0.00 0.00 0.00 0.00 0.00 0.00 0.00 0.00 0.00 0.00 0.00 0.00 0.00 0.00 0.00 0.01 0.01 0.00 0.01 0.01 0.00 0.00 0.01 0.01 0.01 0.01 0.01
0.00 0.00 0.00 0.00 0.00 0.00 0.00 0.00 0.00 0.00 0.00 0.00 0.00 0.00 0.00 0.00 0.00 0.00 0.00 0.00 0.00 0.00 0.00 0.00 0.00 0.00 0.00 0.00 0.00 0.00 0.00 0.00 0.00 0.01 0.01 0.01 0.01 0.01 0.01 0.00 0.01 0.01 0.01 0.01
0.01 0.01 0.00 0.00 0.00 0.00 0.00 0.01 0.01 0.01 0.00 0.00 0.00 0.00 0.00 0.00 0.00 0.00 0.00 0.00 0.00 0.00 0.00 0.00 0.00 0.01 0.01 0.01 0.00 0.00 0.00 0.00 0.00 0.00 0.01 0.01 0.01 0.00 0.01 0.01 0.01 0.01 0.01 0.01
0.00 0.01 0.01 0.00 0.01 0.01 0.00 0.01 0.01 0.01 0.00 0.00 0.00 0.00 0.00 0.00 0.00 0.00 0.00 0.00 0.00 0.00 0.00 0.00 0.00 0.01 0.01 0.01 0.00 0.00 0.00 0.00 0.00 0.00 0.00 0.01 0.01 0.00 0.00 0.01 0.01 0.01 0.01 0.02
0.01 0.01 0.00 0.00 0.01 0.01 0.01 0.00 0.01 0.01 0.01 0.00 0.00 0.00 0.00 0.00 0.00 0.00 0.00 0.00 0.00 0.00 0.00 0.00 0.01 0.01 0.01 0.01 0.00 0.00 0.00 0.00 0.00 0.00 0.00 0.00 0.01 0.01 0.00 0.00 0.01 0.01 0.01 0.01
0.00 0.00 0.00 0.00 0.00 0.01 0.01 0.01 0.01 0.01 0.01 0.00 0.00 0.00 0.00 0.00 0.00 0.00 0.00 0.00 0.00 0.00 0.00 0.00 0.01 0.01 0.00 0.00 0.00 0.00 0.00 0.00 0.00 0.00 0.00 0.00 0.01 0.01 0.01 0.01 0.01 0.01 0.01 0.01
0.00 0.00 0.00 0.00 0.00 0.00 0.00 0.01 0.02 0.02 0.01 0.01 0.00 0.00 0.00 0.00 0.00 0.00 0.00 0.00 0.00 0.00 0.00 0.00 0.01 0.01 0.00 0.00 0.00 0.00 0.00 0.00 0.00 0.00 0.00 0.00 0.00 0.01 0.01 0.00 0.00 0.01 0.01 0.00
0.00 0.00 0.00 0.00 0.00 0.00 0.00 0.00 0.01 0.02 0.02 0.01 0.01 0.00 0.00 0.00 0.00 0.00 0.00 0.00 0.00 0.00 0.00 0.00 0.01 0.01 0.00 0.00 0.00 0.00 0.00 0.00 0.01 0.01 0.01 0.00 0.00 0.00 0.00 0.00 0.00 0.00 0.01 0.01
0.00 0.01 0.01 0.00 0.00 0.00 0.00 0.00 0.00 0.00 0.00 0.01 0.01 0.01 0.00 0.00 0.00 0.00 0.00 0.00 0.00 0.00 0.00 0.01 0.01 0.00 0.00 0.00 0.00 0.00 0.00 0.00 0.01 0.01 0.01 0.01 0.00 0.00 0.00 0.00 0.00 0.00 0.01 0.01
0.00 0.00 0.00 0.01 0.01 0.01 0.01 0.01 0.01 0.01 0.00 0.00 0.00 0.00 0.01 0.00 0.00 0.00 0.00 0.00 0.00 0.00 0.00 0.00 0.00 0.00 0.00 0.00 0.00 0.00 0.01 0.01 0.01 0.01 0.01 0.00 0.01 0.01 0.00 0.01 0.01 0.01 0.01 0.01
0.01 0.00 0.00 0.00 0.00 0.00 0.00 0.00 0.00 0.01 0.01 0.01 0.01 0.01 0.01 0.01 0.01 0.01 0.01 0.01 0.00 0.00 0.00 0.00 0.00 0.00 0.00 0.00 0.01 0.01 0.01 0.01 0.01 0.01 0.01 0.01 0.01 0.01 0.01 0.01 0.01 0.01 0.01 0.01
0.02 0.02 0.00 0.00 0.00 0.00 0.00 0.00 0.00 0.00 0.00 0.01 0.00 0.01 0.01 0.01 0.01 0.01 0.01 0.01 0.01 0.00 0.00 0.00 0.00 0.01 0.00 0.00 0.00 0.01 0.01 0.02 0.02 0.01 0.01 0.01 0.01 0.01 0.01 0.01 0.01 0.01 0.01 0.01
0.02 0.01 0.01 0.00 0.00 0.00 0.00 0.00 0.00 0.00 0.00 0.01 0.01 0.01 0.01 0.01 0.01 0.01 0.01 0.01 0.01 0.01 0.01 0.01 0.01 0.01 0.00 0.00 0.00 0.00 0.01 0.02 0.02 0.01 0.01 0.01 0.01 0.01 0.01 0.02 0.02 0.01 0.01 0.01
0.01 0.01 0.01 0.01 0.00 0.00 0.00 0.00 0.00 0.00 0.00 0.01 0.01 0.01 0.01 0.01 0.00 0.00 0.01 0.01 0.01 0.01 0.01 0.00 0.00 0.00 0.00 0.00 0.00 0.00 0.00 0.01 0.01 0.01 0.01 0.02 0.01 0.01 0.01 0.01 0.01 0.02 0.02 0.01
0.01 0.01 0.01 0.01 0.01 0.00 0.00 0.00 0.01 0.00 0.01 0.00 0.01 0.01 0.01 0.00 0.00 0.00 0.00 0.01 0.01 0.01 0.01 0.00 0.00 0.00 0.00 0.00 0.00 0.01 0.01 0.01 0.01 0.01 0.02 0.01 0.01 0.01 0.01 0.01 0.01 0.01 0.01 0.01
0.01 0.01 0.02 0.02 0.02 0.01 0.00 0.00 0.00 0.01 0.01 0.01 0.00 0.01 0.01 0.00 0.00 0.00 0.00 0.00 0.00 0.00 0.00 0.00 0.01 0.01 0.01 0.00 0.00 0.00 0.01 0.01 0.01 0.02 0.02 0.02 0.01 0.01 0.01 0.01 0.01 0.01 0.02 0.01
0.01 0.01 0.02 0.02 0.02 0.01 0.00 0.00 0.00 0.01 0.01 0.01 0.01 0.01 0.01 0.01 0.01 0.00 0.00 0.00 0.00 0.00 0.00 0.00 0.01 0.01 0.01 0.01 0.00 0.00 0.00 0.01 0.01 0.02 0.02 0.02 0.02 0.02 0.01 0.01 0.01 0.02 0.02 0.02
0.01 0.01 0.01 0.02 0.03 0.02 0.01 0.01 0.01 0.01 0.01 0.01 0.01 0.02 0.01 0.01 0.00 0.00 0.00 0.00 0.00 0.00 0.00 0.01 0.01 0.01 0.01 0.01 0.00 0.00 0.01 0.01 0.01 0.02 0.02 0.02 0.02 0.02 0.02 0.02 0.02 0.02 0.02 0.02
0.01 0.01 0.01 0.02 0.02 0.01 0.00 0.01 0.01 0.00 0.01 0.01 0.00 0.00 0.01 0.01 0.01 0.00 0.00 0.00 0.00 0.00 0.00 0.00 0.00 0.00 0.00 0.00 0.00 0.01 0.01 0.01 0.01 0.02 0.02 0.02 0.02 0.02 0.02 0.02 0.02 0.02 0.02 0.02
0.01 0.01 0.01 0.01 0.01 0.00 0.00 0.00 0.00 0.00 0.00 0.00 0.00 0.00 0.00 0.00 0.00 0.00 0.00 0.00 0.00 0.00 0.00 0.00 0.00 0.00 0.00 0.00 0.00 0.00 0.01 0.01 0.02 0.02 0.03 0.03 0.02 0.02 0.02 0.01 0.01 0.01 0.01 0.02
0.00 0.01 0.01 0.01 0.01 0.00 0.00 0.00 0.00 0.00 0.00 0.00 0.00 0.00 0.00 0.00 0.00 0.00 0.00 0.00 0.00 0.00 0.00 0.00 0.00 0.00 0.00 0.00 0.00 0.00 0.01 0.01 0.01 0.02 0.03 0.04 0.04 0.03 0.02 0.02 0.02 0.02 0.01 0.02
0.00 0.01 0.01 0.01 0.01 0.00 0.00 0.00 0.00 0.01 0.01 0.00 0.00 0.00 0.00 0.00 0.00 0.00 0.00 0.00 0.00 0.00 0.00 0.00 0.00 0.00 0.00 0.00 0.00 0.00 0.00 0.01 0.01 0.01 0.02 0.03 0.04 0.04 0.03 0.03 0.03 0.03 0.03 0.02
MSLP
1013.99 1014.69 1015.39 1016.06 1016.68 1017.26 1017.78 1018.25 1018.67 1019.01 1019.25 1019.38 1019.39 1019.26 1019.03 1018.70 1018.32 1017.94 1017.59 1017.32 1017.14 1017.05 1017.05 1017.12 1017.23 1017.35 1017.47 1017.58 1017.68 1017.77 1017.87 1017.96 1018.05 1018.13 1018.19 1018.22 1018.19 1018.10 1017.96 1017.75 1017.52 1017.27 1017.03 1016.82
1014.64 1015.27 1015.88 1016.44 1016.97 1017.47 1017.95 1018.40 1018.81 1019.16 1019.42 1019.57 1019.58 1019.44 1019.17 1018.80 1018.38 1017.96 1017.58 1017.29 1017.11 1017.04 1017.07 1017.18 1017.32 1017.47 1017.62 1017.74 1017.84 1017.93 1018.01 1018.10 1018.18 1018.25 1018.30 1018.32 1018.29 1018.20 1018.05 1017.86 1017.64 1017.41 1017.20 1017.03
1015.23 1015.78 1016.30 1016.77 1017.21 1017.64 1018.07 1018.50 1018.91 1019.27 1019.55 1019.71 1019.72 1019.58 1019.29 1018.89 1018.44 1017.98 1017.59 1017.28 1017.10 1017.05 1017.10 1017.22 1017.38 1017.55 1017.71 1017.84 1017.94 1018.03 1018.10 1018.17 1018.24 1018.29 1018.33 1018.33 1018.28 1018.18 1018.04 1017.85 1017.65 1017.46 1017.29 1017.17
1015.73 1016.22 1016.65 1017.05 1017.42 1017.79 1018.18 1018.59 1019.00 1019.37 1019.67 1019.84 1019.86 1019.71 1019.41 1018.99 1018.52 1018.04 1017.62 1017.31 1017.12 1017.06 1017.12 1017.25 1017.42 1017.59 1017.75 1017.88 1017.98 1018.06 1018.13 1018.18 1018.23 1018.27 1018.28 1018.26 1018.19 1018.08 1017.93 1017.75 1017.58 1017.43 1017.32 1017.26
1016.14 1016.57 1016.95 1017.28 1017.60 1017.94 1018.31 1018.71 1019.12 1019.50 1019.81 1019.99 1020.01 1019.86 1019.55 1019.11 1018.62 1018.12 1017.69 1017.37 1017.17 1017.10 1017.15 1017.27 1017.44 1017.61 1017.77 1017.89 1017.99 1018.07 1018.12 1018.17 1018.21 1018.23 1018.21 1018.16 1018.07 1017.94 1017.78 1017.61 1017.47 1017.36 1017.30 1017.31
1016.46 1016.85 1017.18 1017.48 1017.78 1018.10 1018.46 1018.86 1019.28 1019.66 1019.97 1020.14 1020.16 1020.00 1019.68 1019.23 1018.73 1018.23 1017.79 1017.46 1017.25 1017.18 1017.21 1017.33 1017.48 1017.65 1017.80 1017.92 1018.01 1018.09 1018.14 1018.18 1018.21 1018.21 1018.18 1018.10 1017.99 1017.84 1017.67 1017.51 1017.37 1017.30 1017.29 1017.36
1016.69 1017.05 1017.36 1017.64 1017.93 1018.25 1018.62 1019.02 1019.44 1019.82 1020.11 1020.28 1020.28 1020.10 1019.77 1019.33 1018.83 1018.34 1017.91 1017.58 1017.39 1017.31 1017.35 1017.45 1017.60 1017.75 1017.89 1018.01 1018.10 1018.18 1018.23 1018.27 1018.29 1018.28 1018.23 1018.14 1018.00 1017.83 1017.65 1017.49 1017.37 1017.32 1017.34 1017.44
1016.79 1017.14 1017.45 1017.74 1018.04 1018.37 1018.75 1019.15 1019.56 1019.92 1020.19 1020.33 1020.31 1020.13 1019.80 1019.37 1018.89 1018.43 1018.03 1017.74 1017.57 1017.52 1017.57 1017.67 1017.82 1017.96 1018.10 1018.21 1018.30 1018.37 1018.43 1018.47 1018.49 1018.48 1018.42 1018.32 1018.17 1017.99 1017.80 1017.63 1017.51 1017.46 1017.50 1017.62
1016.76 1017.11 1017.43 1017.74 1018.06 1018.41 1018.79 1019.19 1019.58 1019.91 1020.16 1020.26 1020.22 1020.03 1019.72 1019.32 1018.89 1018.48 1018.16 1017.93 1017.81 1017.80 1017.88 1018.00 1018.15 1018.30 1018.43 1018.54 1018.63 1018.70 1018.76 1018.81 1018.83 1018.82 1018.76 1018.66 1018.51 1018.32 1018.13 1017.95 1017.83 1017.77 1017.80 1017.90
1016.56 1016.92 1017.27 1017.61 1017.96 1018.33 1018.72 1019.10 1019.47 1019.76 1019.96 1020.04 1019.98 1019.79 1019.50 1019.16 1018.81 1018.49 1018.26 1018.13 1018.10 1018.15 1018.27 1018.43 1018.59 1018.74 1018.87 1018.98 1019.06 1019.14 1019.20 1019.26 1019.29 1019.29 1019.24 1019.15 1019.01 1018.82 1018.63 1018.45 1018.31 1018.24 1018.24 1018.32
1016.20 1016.59 1016.97 1017.34 1017.72 1018.11 1018.50 1018.87 1019.19 1019.44 1019.60 1019.64 1019.57 1019.40 1019.16 1018.89 1018.64 1018.45 1018.33 1018.32 1018.39 1018.53 1018.71 1018.91 1019.09 1019.25 1019.38 1019.48 1019.56 1019.64 1019.71 1019.77 1019.82 1019.84 1019.82 1019.75 1019.62 1019.46 1019.27 1019.09 1018.95 1018.86 1018.83 1018.87
1015.72 1016.14 1016.56 1016.97 1017.38 1017.77 1018.15 1018.49 1018.77 1018.97 1019.09 1019.10 1019.02 1018.88 1018.70 1018.53 1018.39 1018.33 1018.35 1018.46 1018.65 1018.88 1019.12 1019.36 1019.57 1019.74 1019.87 1019.97 1020.06 1020.13 1020.22 1020.30 1020.37 1020.42 1020.43 1020.39 1020.30 1020.16 1019.99 1019.82 1019.68 1019.57 1019.52 1019.52
1015.21 1015.66 1016.11 1016.55 1016.97 1017.37 1017.72 1018.02 1018.25 1018.40 1018.46 1018.45 1018.37 1018.26 1018.15 1018.08 1018.06 1018.13 1018.29 1018.53 1018.82 1019.13 1019.45 1019.73 1019.96 1020.14 1020.28 1020.39 1020.48 1020.57 1020.67 1020.77 1020.87 1020.96 1021.01 1021.01 1020.95 1020.85 1020.72 1020.57 1020.44 1020.33 1020.26 1020.23
1014.75 1015.22 1015.69 1016.15 1016.57 1016.95 1017.27 1017.52 1017.68 1017.77 1017.78 1017.74 1017.66 1017.59 1017.54 1017.56 1017.66 1017.85 1018.12 1018.47 1018.85 1019.24 1019.61 1019.93 1020.20 1020.40 1020.55 1020.67 1020.78 1020.89 1021.02 1021.16 1021.30 1021.42 1021.51 1021.56 1021.56 1021.50 1021.40 1021.28 1021.17 1021.07 1021.00 1020.96
1014.42 1014.91 1015.39 1015.84 1016.24 1016.58 1016.84 1017.01 1017.10 1017.12 1017.08 1017.00 1016.92 1016.87 1016.88 1016.98 1017.17 1017.46 1017.84 1018.27 1018.73 1019.18 1019.60 1019.95 1020.24 1020.47 1020.65 1020.80 1020.95 1021.10 1021.26 1021.44 1021.63 1021.80 1021.93 1022.03 1022.07 1022.05 1022.00 1021.92 1021.83 1021.75 1021.68 1021.65
1014.30 1014.78 1015.24 1015.66 1016.01 1016.28 1016.45 1016.54 1016.54 1016.47 1016.37 1016.26 1016.17 1016.14 1016.19 1016.35 1016.61 1016.98 1017.43 1017.92 1018.44 1018.93 1019.39 1019.78 1020.11 1020.37 1020.60 1020.80 1021.00 1021.20 1021.42 1021.65 1021.88 1022.09 1022.28 1022.41 1022.49 1022.51 1022.49 1022.44 1022.38 1022.32 1022.28 1022.25
1014.36 1014.82 1015.24 1015.59 1015.86 1016.04 1016.11 1016.09 1015.99 1015.84 1015.67 1015.52 1015.42 1015.40 1015.48 1015.69 1016.01 1016.43 1016.92 1017.46 1018.01 1018.54 1019.03 1019.46 1019.83 1020.15 1020.44 1020.70 1020.97 1021.24 1021.52 1021.81 1022.09 1022.34 1022.56 1022.72 1022.82 1022.87 1022.88 1022.85 1022.81 1022.77 1022.74 1022.72
1014.54 1014.96 1015.32 1015.58 1015.75 1015.81 1015.77 1015.63 1015.43 1015.20 1014.97 1014.79 1014.68 1014.67 1014.78 1015.02 1015.38 1015.84 1016.36 1016.93 1017.51 1018.07 1018.59 1019.06 1019.49 1019.87 1020.23 1020.57 1020.92 1021.26 1021.61 1021.95 1022.27 1022.55 1022.79 1022.96 1023.08 1023.14 1023.15 1023.13 1023.10 1023.07 1023.04 1023.02
1014.75 1015.10 1015.37 1015.54 1015.59 1015.53 1015.37 1015.13 1014.84 1014.54 1014.27 1014.07 1013.96 1013.97 1014.11 1014.39 1014.78 1015.26 1015.81 1016.40 1017.00 1017.58 1018.14 1018.65 1019.14 1019.59 1020.03 1020.45 1020.88 1021.30 1021.70 1022.09 1022.44 1022.73 1022.97 1023.14 1023.25 1023.30 1023.31 1023.28 1023.24 1023.21 1023.17 1023.15
1014.84 1015.13 1015.30 1015.36 1015.30 1015.13 1014.87 1014.54 1014.19 1013.85 1013.57 1013.37 1013.28 1013.33 1013.51 1013.82 1014.24 1014.76 1015.33 1015.93 1016.54 1017.15 1017.73 1018.29 1018.83 1019.36 1019.86 1020.36 1020.86 1021.33 1021.79 1022.20 1022.56 1022.86 1023.08 1023.23 1023.32 1023.34 1023.33 1023.29 1023.24 1023.19 1023.14 1023.10
1014.73 1014.93 1015.02 1014.98 1014.82 1014.57 1014.23 1013.86 1013.48 1013.14 1012.88 1012.72 1012.68 1012.77 1013.01 1013.36 1013.81 1014.35 1014.94 1015.55 1016.18 1016.80 1017.41 1018.00 1018.59 1019.16 1019.73 1020.28 1020.83 1021.35 1021.82 1022.25 1022.60 1022.88 1023.08 1023.20 1023.25 1023.25 1023.21 1023.15 1023.08 1023.01 1022.95 1022.89
1014.34 1014.47 1014.48 1014.37 1014.15 1013.84 1013.48 1013.10 1012.74 1012.44 1012.23 1012.13 1012.16 1012.32 1012.61 1013.01 1013.50 1014.06 1014.65 1015.27 1015.90 1016.53 1017.14 1017.76 1018.37 1018.98 1019.58 1020.17 1020.74 1021.27 1021.75 1022.17 1022.50 1022.75 1022.91 1023.00 1023.02 1022.99 1022.93 1022.85 1022.77 1022.70 1022.63 1022.57
1013.69 1013.76 1013.70 1013.55 1013.30 1012.99 1012.65 1012.31 1012.01 1011.79 1011.66 1011.65 1011.76 1011.99 1012.34 1012.78 1013.29 1013.86 1014.45 1015.06 1015.68 1016.29 1016.91 1017.52 1018.14 1018.76 1019.37 1019.97 1020.54 1021.06 1021.53 1021.92 1022.22 1022.44 1022.57 1022.62 1022.62 1022.57 1022.50 1022.42 1022.35 1022.29 1022.23 1022.17
1012.84 1012.84 1012.76 1012.59 1012.36 1012.09 1011.81 1011.55 1011.35 1011.22 1011.19 1011.28 1011.47 1011.77 1012.16 1012.63 1013.16 1013.72 1014.29 1014.88 1015.47 1016.06 1016.65 1017.24 1017.84 1018.45 1019.05 1019.63 1020.18 1020.69 1021.12 1021.48 1021.75 1021.94 1022.04 1022.08 1022.07 1022.02 1021.97 1021.91 1021.86 1021.83 1021.80 1021.78
1011.86 1011.83 1011.73 1011.59 1011.41 1011.21 1011.03 1010.88 1010.79 1010.78 1010.85 1011.03 1011.29 1011.64 1012.06 1012.54 1013.05 1013.59 1014.13 1014.68 1015.22 1015.77 1016.33 1016.89 1017.46 1018.04 1018.61 1019.16 1019.69 1020.16 1020.57 1020.89 1021.14 1021.31 1021.40 1021.44 1021.44 1021.41 1021.39 1021.37 1021.37 1021.39 1021.41 1021.44
1010.88 1010.83 1010.74 1010.64 1010.53 1010.44 1010.37 1010.34 1010.37 1010.47 1010.64 1010.89 1011.20 1011.58 1012.00 1012.46 1012.94 1013.44 1013.93 1014.43 1014.93 1015.44 1015.95 1016.47 1017.01 1017.55 1018.09 1018.61 1019.10 1019.54 1019.92 1020.23 1020.46 1020.62 1020.72 1020.78 1020.81 1020.83 1020.85 1020.89 1020.96 1021.04 1021.13 1021.23
Thickness
5733 5726 5720 5724 5728 5728 5727 5723 5721 5727 5735 5731 5730 5734 5741 5746 5745 5745 5747 5748 5748 5748 5749 5747 5744 5741 5738 5735 5733 5731 5728 5725 5721 5718 5715 5712 5710 5709 5708 5706 5705 5703 5702 5700
5721 5718 5726 5728 5725 5722 5721 5718 5719 5725 5730 5728 5729 5732 5743 5746 5745 5747 5748 5749 5749 5747 5746 5743 5741 5739 5737 5734 5732 5730 5726 5724 5720 5716 5714 5711 5709 5707 5706 5703 5701 5700 5698 5697
5715 5722 5726 5721 5716 5714 5716 5716 5718 5718 5722 5725 5723 5727 5738 5745 5746 5746 5748 5749 5750 5746 5744 5743 5739 5737 5735 5733 5730 5728 5725 5722 5718 5714 5711 5708 5705 5703 5701 5699 5698 5697 5695 5694
5717 5723 5718 5715 5715 5715 5711 5721 5719 5717 5714 5716 5719 5713 5734 5741 5740 5742 5745 5746 5746 5745 5744 5741 5738 5735 5734 5732 5730 5727 5724 5721 5716 5713 5709 5706 5702 5700 5700 5699 5697 5695 5693 5691
5713 5716 5714 5711 5716 5717 5716 5720 5717 5716 5714 5714 5718 5713 5729 5739 5735 5741 5745 5746 5745 5744 5743 5740 5737 5735 5734 5731 5728 5725 5722 5719 5715 5711 5707 5704 5702 5700 5699 5697 5694 5693 5690 5688
5715 5719 5717 5716 5719 5719 5717 5713 5712 5712 5711 5700 5714 5710 5718 5735 5736 5740 5743 5744 5744 5743 5742 5740 5737 5734 5731 5729 5725 5722 5719 5716 5713 5709 5707 5703 5700 5697 5695 5693 5691 5689 5687 5684
5705 5711 5715 5717 5711 5711 5711 5704 5695 5693 5693 5701 5715 5709 5720 5735 5738 5737 5737 5739 5741 5741 5739 5737 5734 5730 5727 5725 5722 5719 5716 5713 5710 5708 5705 5703 5699 5696 5693 5691 5689 5687 5685 5682
5693 5696 5708 5712 5710 5708 5709 5707 5693 5685 5689 5703 5706 5706 5725 5735 5735 5736 5736 5736 5736 5736 5736 5733 5732 5729 5725 5723 5720 5717 5714 5711 5708 5705 5703 5701 5698 5694 5692 5689 5687 5685 5683 5680
5693 5693 5707 5709 5712 5711 5703 5704 5711 5700 5697 5693 5705 5714 5722 5730 5729 5730 5730 5730 5730 5731 5731 5730 5728 5726 5723 5720 5717 5715 5713 5709 5706 5703 5700 5698 5695 5692 5689 5687 5684 5681 5679 5675
5698 5689 5699 5703 5705 5703 5707 5706 5698 5691 5681 5682 5696 5704 5711 5718 5720 5724 5725 5725 5726 5726 5726 5725 5723 5722 5720 5717 5715 5712 5710 5706 5703 5701 5698 5694 5691 5689 5686 5683 5680 5678 5675 5672
5693 5686 5690 5694 5693 5694 5695 5694 5695 5694 5691 5682 5683 5698 5719 5718 5719 5718 5720 5721 5720 5719 5719 5719 5717 5716 5715 5713 5710 5707 5705 5702 5700 5697 5694 5691 5688 5685 5682 5679 5677 5674 5671 5668
5688 5685 5682 5689 5696 5696 5696 5696 5693 5683 5683 5686 5683 5695 5719 5716 5716 5714 5713 5713 5714 5713 5713 5712 5711 5709 5707 5706 5705 5703 5700 5698 5695 5692 5690 5687 5684 5680 5677 5675 5673 5670 5667 5664
5681 5677 5671 5675 5679 5684 5684 5687 5689 5689 5685 5681 5677 5690 5710 5710 5708 5707 5705 5705 5705 5705 5705 5704 5703 5701 5700 5699 5698 5697 5695 5693 5691 5687 5685 5682 5679 5676 5673 5671 5668 5666 5663 5660
5675 5674 5670 5666 5675 5679 5676 5677 5679 5678 5675 5676 5680 5688 5697 5698 5696 5697 5697 5697 5698 5698 5697 5696 5695 5694 5693 5693 5691 5690 5689 5687 5685 5682 5679 5676 5674 5671 5669 5666 5663 5661 5658 5655
5668 5665 5669 5671 5672 5672 5671 5671 5672 5672 5675 5673 5679 5681 5688 5689 5688 5689 5690 5689 5688 5688 5689 5689 5688 5687 5686 5686 5685 5683 5681 5681 5678 5676 5673 5671 5669 5666 5663 5660 5658 5655 5653 5650
5660 5657 5659 5659 5663 5663 5662 5666 5667 5668 5671 5672 5673 5675 5684 5685 5684 5683 5682 5680 5679 5679 5680 5681 5681 5679 5678 5678 5677 5675 5674 5673 5672 5670 5667 5665 5662 5659 5656 5654 5652 5649 5646 5644
5651 5650 5647 5651 5655 5653 5654 5663 5663 5664 5668 5668 5665 5671 5674 5673 5672 5673 5674 5673 5672 5672 5672 5672 5673 5672 5672 5672 5671 5668 5668 5667 5665 5663 5661 5658 5656 5652 5650 5648 5645 5642 5640 5637
5643 5641 5641 5642 5642 5635 5659 5665 5662 5659 5660 5664 5663 5664 5665 5665 5665 5667 5667 5666 5665 5665 5664 5664 5665 5664 5664 5664 5663 5662 5660 5659 5657 5655 5653 5651 5649 5646 5643 5640 5638 5635 5634 5631
5639 5636 5633 5633 5631 5641 5652 5654 5653 5650 5651 5657 5655 5655 5655 5657 5658 5660 5661 5659 5659 5659 5658 5657 5657 5656 5655 5655 5654 5652 5651 5650 5648 5647 5645 5643 5641 5638 5635 5632 5630 5629 5626 5624
5630 5631 5628 5625 5620 5626 5645 5649 5650 5645 5640 5650 5648 5645 5645 5646 5643 5649 5652 5651 5650 5650 5649 5648 5648 5647 5646 5646 5645 5643 5642 5641 5639 5638 5637 5635 5633 5630 5628 5626 5624 5621 5619 5616
5621 5620 5619 5618 5617 5629 5639 5638 5637 5626 5634 5640 5640 5638 5637 5637 5639 5641 5642 5642 5642 5641 5640 5639 5639 5638 5637 5636 5635 5634 5634 5632 5631 5630 5629 5627 5625 5623 5621 5618 5615 5613 5610 5608
5617 5615 5614 5614 5610 5618 5629 5626 5623 5627 5632 5631 5631 5631 5629 5629 5630 5631 5632 5631 5631 5630 5630 5630 5629 5628 5627 5627 5626 5625 5624 5624 5623 5621 5619 5618 5616 5614 5611 5609 5606 5604 5601 5598
5614 5616 5615 5613 5615 5620 5621 5620 5620 5621 5621 5622 5622 5622 5621 5620 5621 5621 5622 5623 5622 5622 5621 5621 5620 5619 5618 5617 5617 5616 5615 5613 5612 5611 5609 5608 5607 5605 5602 5599 5596 5594 5592 5590
5608 5606 5605 5605 5611 5612 5611 5611 5612 5612 5612 5612 5612 5612 5612 5611 5612 5613 5614 5614 5613 5612 5612 5611 5611 5610 5609 5608 5607 5607 5606 5604 5603 5602 5601 5598 5597 5595 5592 5588 5586 5584 5583 5581
5601 5597 5597 5598 5602 5600 5602 5602 5602 5602 5603 5603 5603 5604 5603 5603 5603 5604 5604 5604 5604 5603 5602 5601 5601 5601 5600 5599 5598 5597 5596 5595 5595 5594 5592 5588 5586 5585 5582 5579 5576 5574 5572 5571
5593 5590 5589 5592 5595 5594 5595 5595 5595 5594 5594 5595 5594 5594 5594 5594 5594 5595 5595 5595 5595 5594 5593 5593 5593 5592 5591 5591 5590 5588 5587 5586 5586 5584 5581 5578 5575 5573 5572 5569 5565 5560 5559 5557